User: anonymous   Login
Location: Ste-F�licit�
(48.8999°N, 67.3360°W)
Time: 17:08:54
(UTC-04:00)
Language:

N. Korean satellite - Orbit

View from above orbital plane
View from above orbital plane
View from above satellite
View from above satellite

Ground track
Ground track

The orbit data is extracted from the following two-line orbital elements,

1 39026U 12072A   20272.73490438  .00002728  00000-0  98113-4 0  9998
2 39026  97.2293 266.5224 0035488 235.0433 124.7473 15.28882783433087
Epoch (UTC): 28 September 2020 17:38:15
Eccentricity: 0.0035488
inclination: 97.2293°
perigee height: 455 km
apogee height: 503 km
right ascension of ascending node: 266.5224°
argument of perigee: 235.0433°
revolutions per day: 15.28882783
mean anomaly at epoch: 124.7473°
orbit number at epoch: 43308

The dashed part of the orbit path shows where the satellite is in the earth's shadow,  

DLR